Location: B�rgermoos
(47.6500°N, 9.0667°E)
Time: 18:36:40
(UTC+00:00)

Tiros 1 - Pass Details

Date: 07 August 2021
Orbit: 630 x 663 km, 48.4° (Epoch: 20 September)

Event Time Altitude Azimuth Distance (km) Brightness Sun altitude
Rises 13:52:06 0° 194° (SSW) 2,981 11.0 47.1°
Reaches altitude 10° 13:55:17 10° 173° (S) 2,073 10.1 46.6°
Maximum altitude 13:58:06 16° 136° (SE) 1,724 9.4 46.2°
Drops below altitude 10° 14:00:56 10° 100° (E) 2,075 9.5 45.8°
Sets 14:04:06 0° 79° (ENE) 2,986 10.2 45.4°
